Theta_e
311 312 314 313 313 315 314 314 314 313 312 314 313 314 312 311 311 312 312 309 310 310 312 314 320 327 329 331 332 334 335 336 335 332 331 331 330 330 330 329 329 329 329 329
312 313 313 314 313 313 313 314 314 312 312 313 313 312 312 312 311 311 312 312 311 311 309 310 311 312 317 328 331 332 333 335 335 334 331 330 330 329 329 329 329 329 329 329
312 314 313 312 311 312 313 314 313 314 312 313 312 310 312 311 312 310 310 310 309 310 310 310 312 310 310 312 321 330 331 333 334 336 334 331 330 329 329 329 329 328 328 329
313 312 312 311 311 312 312 312 313 313 311 310 310 306 311 308 308 308 309 310 309 310 311 311 312 313 313 311 310 314 327 330 332 334 334 332 329 329 328 328 327 327 326 327
312 311 312 313 312 311 313 312 314 314 314 312 312 309 311 308 308 309 311 311 311 311 310 311 313 314 315 314 310 310 317 325 329 332 333 332 328 328 327 328 327 326 326 326
310 308 311 312 310 311 312 313 313 314 314 310 312 308 309 308 308 310 311 311 311 310 309 311 314 317 318 313 308 309 316 322 326 329 330 329 326 326 326 326 327 326 327 327
309 310 310 310 311 311 312 310 312 312 312 313 307 310 309 309 311 309 310 311 310 310 309 310 311 314 319 319 317 317 319 321 323 325 326 327 324 324 323 323 323 322 322 322
311 311 309 310 311 311 311 309 313 313 315 311 307 308 309 308 307 308 311 310 310 309 309 308 310 310 311 315 319 317 317 318 320 321 322 321 321 320 320 319 318 316 314 315
310 313 310 310 311 310 311 311 312 309 303 312 308 309 308 307 307 310 311 310 310 309 308 307 309 309 309 309 309 309 310 311 311 311 311 311 312 310 309 309 308 307 306 305
310 313 311 310 310 309 310 308 309 310 307 314 309 310 309 309 307 309 311 310 309 308 307 307 308 308 307 307 307 307 307 307 307 306 306 306 306 305 305 304 303 302 301 301
311 314 312 310 311 310 308 308 309 310 314 316 311 307 306 310 308 310 311 310 308 307 307 306 307 307 307 306 306 305 305 305 304 303 303 302 301 300 299 299 299 298 298 298
312 312 312 312 310 309 309 309 309 311 310 308 314 311 308 307 308 310 311 310 308 308 307 306 307 307 305 304 303 302 302 301 300 300 299 298 298 298 298 297 297 297 297 296
311 314 314 313 311 309 310 309 309 309 310 309 309 308 307 309 309 311 311 309 309 308 307 306 306 305 303 302 301 300 300 300 299 298 298 297 297 297 296 295 295 294 294 294
311 314 314 313 311 311 311 309 308 309 311 310 310 310 309 311 311 311 310 309 309 308 308 306 304 303 302 301 300 299 299 298 298 297 296 295 294 294 293 293 293 292 292 292
310 311 311 310 311 311 310 309 309 309 309 309 309 308 309 309 311 311 309 309 309 308 308 306 303 301 301 300 299 298 298 298 296 295 294 293 293 292 292 292 292 292 291 291
309 310 310 312 311 311 312 310 310 309 309 308 308 308 308 308 310 310 310 310 310 309 307 305 302 301 300 299 299 297 297 295 294 293 292 292 291 292 292 291 291 291 291 290
310 310 309 307 311 310 308 311 311 310 309 309 309 309 308 309 311 311 310 310 310 308 306 304 302 300 299 299 298 296 294 293 292 292 291 291 291 291 291 290 290 290 289 288
312 312 313 311 309 311 309 308 310 311 310 309 309 309 307 309 310 310 310 309 309 308 305 302 300 299 299 298 296 294 293 292 291 291 291 291 291 290 290 289 288 288 287 287
311 312 313 314 314 311 309 308 308 309 310 308 309 309 307 308 308 309 307 308 308 307 303 301 300 298 297 295 294 292 291 291 291 290 290 289 289 289 288 287 287 287 287 287
312 311 313 315 309 309 310 309 307 308 310 307 308 307 307 308 310 310 306 307 306 303 301 299 297 296 294 293 292 291 291 290 290 289 289 288 288 287 287 287 287 287 286 286
311 309 312 311 305 310 307 308 306 309 309 303 306 306 307 309 310 307 304 304 303 301 298 296 295 293 292 292 291 290 290 289 288 288 288 287 286 286 286 286 286 286 285 285
312 311 309 306 307 312 305 307 309 308 304 307 308 305 307 304 303 303 303 300 297 295 295 294 292 291 290 291 291 289 289 287 287 287 286 286 286 286 285 285 285 284 283 282
314 311 311 311 311 304 305 304 301 301 303 304 306 305 300 300 300 299 298 296 295 294 292 291 290 288 288 289 290 288 285 286 286 285 286 286 285 285 284 283 282 280 280 280
304 299 308 311 304 302 301 300 299 300 302 302 302 300 299 298 298 297 296 294 293 292 291 289 288 286 284 285 286 286 284 284 284 285 284 283 283 283 281 279 279 278 278 279
303 302 305 304 298 296 297 296 300 299 299 300 299 298 296 296 296 295 294 292 291 290 289 289 288 285 283 283 282 281 282 282 282 282 281 280 278 278 278 278 277 277 277 278
298 304 309 312 304 304 303 298 299 298 298 297 295 295 294 294 294 292 291 290 289 287 287 287 286 284 280 280 280 279 279 280 280 279 277 277 277 276 276 275 276 276 275 276
Wind_Speed
11 11 16 16 11 7 10 6 8 6 3 4 7 5 8 9 6 6 6 8 9 9 8 12 15 16 17 18 21 23 24 24 23 25 23 20 21 19 18 16 15 15 14 15
10 18 12 10 9 9 5 13 6 6 6 3 6 9 7 6 6 8 8 8 8 9 7 9 5 8 12 18 19 21 22 25 25 24 24 20 19 19 19 19 18 17 16 17
11 10 10 7 5 6 6 10 6 6 4 2 1 5 8 6 6 4 1 2 4 6 6 7 7 6 9 14 17 21 23 23 26 20 20 18 13 14 14 16 17 17 17 18
9 5 9 9 9 8 5 3 9 12 7 4 6 4 5 7 6 6 6 4 6 6 4 6 6 5 3 6 13 14 19 19 20 22 19 18 17 14 12 12 12 12 12 12
5 6 8 9 9 7 3 8 8 4 4 3 3 2 4 8 7 7 8 7 7 7 7 7 7 5 1 4 9 16 14 15 17 18 16 15 12 11 8 6 7 8 7 7
3 3 1 3 5 6 8 10 8 4 3 1 5 6 4 6 8 8 7 8 9 8 7 8 8 10 7 7 6 9 10 10 10 13 13 12 10 10 9 6 4 2 2 1
3 2 2 1 9 4 6 8 3 2 1 5 7 3 7 3 2 9 11 9 8 8 8 7 9 12 12 13 14 16 16 14 12 12 11 11 7 6 6 6 5 4 4 4
6 3 6 4 4 8 8 7 5 6 4 4 3 6 5 3 7 8 10 10 8 8 8 8 12 13 14 17 17 18 16 14 12 11 10 9 8 7 6 5 5 6 5 1
9 2 3 4 3 7 5 5 3 7 2 4 5 5 2 5 4 7 9 9 8 8 8 8 15 15 16 18 19 21 23 22 21 20 19 17 17 14 14 12 10 9 8 8
7 5 2 1 2 3 3 7 3 1 5 3 4 2 5 7 11 10 10 10 9 7 9 8 15 17 16 19 22 23 23 23 23 23 22 21 19 17 16 15 15 13 12 11
1 5 2 3 5 8 3 3 2 5 4 5 3 6 2 10 13 13 10 9 10 9 8 7 14 17 17 19 21 23 23 23 23 23 22 22 20 18 17 17 15 14 12 13
1 6 4 2 1 3 3 4 5 4 3 2 3 5 3 3 11 12 10 10 9 9 8 9 16 18 17 18 19 21 22 23 21 21 21 20 19 17 17 16 15 14 14 14
7 3 4 3 2 2 3 4 3 4 3 5 6 5 4 1 9 10 13 12 10 9 9 8 15 17 19 19 20 20 21 21 20 20 20 19 18 17 16 15 14 14 13 13
6 4 7 8 5 8 7 11 8 7 3 4 6 4 4 7 10 10 11 11 10 11 11 9 9 17 20 20 21 21 21 19 19 19 19 18 17 15 14 13 14 14 15 16
6 7 6 3 4 6 6 9 9 8 15 8 11 8 7 11 12 14 11 12 13 12 12 10 11 15 21 22 21 20 21 18 17 18 17 16 14 12 12 13 15 15 15 17
1 3 6 1 4 4 4 9 16 19 14 8 6 8 7 12 8 13 16 16 16 15 14 13 12 17 19 22 23 22 21 19 17 16 15 12 11 11 13 14 15 16 18 19
7 5 3 3 6 6 4 13 16 12 11 19 16 21 6 7 16 17 17 19 20 19 16 15 13 18 21 24 24 23 21 18 16 15 12 11 10 11 12 13 15 17 20 22
8 6 3 2 3 3 9 11 14 20 14 18 13 5 11 9 17 18 19 22 19 18 17 14 20 23 26 25 24 23 20 17 15 12 9 8 8 10 12 15 17 19 22 24
4 5 4 7 3 8 9 7 10 9 18 11 19 20 7 5 6 6 11 15 18 17 18 23 25 29 29 26 25 23 19 16 12 9 7 7 9 11 14 17 20 22 25 28
4 8 3 4 6 11 23 6 7 7 14 13 17 11 8 9 8 10 12 17 14 25 29 30 32 32 31 26 25 23 18 13 9 5 4 5 9 13 15 18 21 23 26 29
4 1 11 6 3 8 6 6 8 9 9 6 12 12 14 12 17 6 11 8 25 29 30 34 34 29 30 27 24 21 16 11 6 3 3 6 9 12 15 19 22 25 28 30
9 8 4 2 2 15 5 4 16 6 1 1 1 6 12 6 7 11 14 17 20 26 31 32 30 28 27 25 22 19 14 8 3 1 5 7 10 13 17 20 23 25 27 30
5 5 6 10 7 2 1 2 3 2 1 2 2 1 8 10 7 13 13 15 17 26 26 29 32 30 23 21 18 18 11 5 2 4 6 9 12 15 18 21 24 27 26 28
1 1 3 3 2 2 2 2 1 1 1 2 2 6 8 9 14 14 14 15 15 23 25 30 31 27 22 17 14 11 8 5 3 5 8 11 15 18 20 23 24 26 26 27
1 2 3 4 2 4 4 6 1 1 2 3 3 4 9 14 12 15 14 14 20 23 25 30 28 25 21 16 13 10 6 3 3 6 10 12 14 19 23 26 26 24 24 21
4 4 3 3 1 2 4 5 5 5 4 5 6 6 5 9 14 13 11 18 23 22 26 27 26 25 21 16 12 8 4 3 5 7 9 12 16 20 22 26 34 26 22 19
Wind_Direction
198 207 209 199 204 232 164 208 146 105 71 154 211 225 199 186 183 249 206 177 174 187 172 164 192 199 200 201 198 200 196 196 199 201 203 208 216 220 226 230 241 247 249 246
175 220 203 196 199 237 258 184 151 50 112 113 205 237 246 228 191 199 205 215 188 136 128 138 181 208 202 206 211 206 204 199 204 208 206 211 221 232 239 245 252 255 257 256
189 189 200 174 166 174 242 175 145 136 129 263 333 267 215 210 173 139 190 125 89 94 133 132 155 212 223 222 212 214 211 206 202 209 205 206 215 230 235 242 252 257 260 260
200 211 182 157 182 178 164 67 128 125 144 198 169 263 200 157 181 191 186 188 160 121 106 93 120 119 160 217 221 217 214 213 206 202 204 218 218 222 238 250 260 263 269 271
181 159 167 172 184 182 155 116 121 134 145 122 222 103 258 125 186 195 172 158 118 103 122 102 90 87 174 221 226 212 198 202 203 198 206 208 223 224 226 238 252 258 270 273
83 300 154 126 55 113 139 97 82 77 113 311 193 161 248 182 196 149 134 146 134 125 99 99 105 97 93 85 127 154 169 164 173 180 190 211 212 222 225 232 231 233 252 266
121 70 24 159 85 123 146 139 118 129 197 210 336 108 243 189 97 145 144 144 130 141 134 123 93 91 91 98 105 121 129 119 131 153 165 175 171 190 200 209 228 248 281 325
154 188 174 184 170 172 189 169 145 168 171 197 339 219 245 74 76 93 121 134 138 118 118 115 110 101 95 97 106 111 115 114 124 127 124 129 137 137 139 141 114 111 127 146
172 86 50 37 5 138 210 221 101 104 35 79 200 254 26 144 127 128 131 140 149 139 125 121 115 102 97 99 100 106 110 110 112 113 118 119 119 119 112 109 105 89 77 60
161 108 332 307 310 81 177 145 86 28 126 214 239 223 221 207 191 172 166 162 148 141 127 122 111 110 106 104 106 108 109 108 112 113 110 106 106 103 98 94 84 72 59 51
63 108 174 158 215 162 146 175 199 150 148 164 146 252 298 200 182 176 169 158 148 144 141 127 123 119 115 111 110 109 107 107 105 105 104 101 97 94 90 83 75 64 51 39
59 106 137 180 43 7 15 178 169 147 220 83 137 271 318 338 160 159 166 145 144 143 135 127 130 125 114 109 110 108 109 105 104 105 103 98 95 88 78 70 62 51 42 31
184 125 98 22 347 28 215 173 218 111 87 193 143 254 312 58 133 157 155 152 149 140 136 137 137 131 129 122 117 115 113 111 111 108 102 95 87 79 68 59 51 40 31 22
115 145 151 182 193 134 187 194 191 173 139 180 216 187 216 173 161 158 155 150 146 150 151 150 140 135 136 133 128 123 115 114 112 107 99 89 80 71 62 49 38 26 19 11
160 186 181 155 127 144 163 177 170 202 215 185 224 218 193 192 180 172 154 157 158 161 162 158 149 142 142 135 131 125 119 119 118 108 98 88 80 65 51 38 25 14 6 1
257 210 157 105 71 60 142 174 185 208 220 263 258 262 185 191 152 164 172 168 171 173 173 160 155 149 147 143 139 134 128 124 121 107 97 87 73 50 34 21 10 0 355 349
150 119 85 225 122 88 350 209 190 206 212 214 228 235 160 174 182 179 177 182 183 177 170 163 157 151 147 150 145 138 133 127 117 104 92 75 53 32 19 6 356 351 347 342
149 119 58 117 80 145 245 158 190 203 209 215 237 225 188 184 193 189 189 184 180 175 170 160 151 143 147 146 144 138 134 129 120 107 84 59 32 15 1 352 348 346 341 338
160 141 138 200 223 293 289 202 177 171 243 212 223 236 200 184 130 239 186 178 180 175 159 152 149 146 150 149 145 139 136 130 117 95 66 29 7 357 350 345 345 343 337 335
353 201 142 163 164 203 248 184 124 88 265 199 217 221 159 136 186 219 182 170 154 152 152 147 145 147 150 150 149 143 139 132 116 96 47 1 347 344 344 341 338 336 335 329
138 73 199 192 218 274 200 162 125 147 245 217 189 197 172 192 214 179 133 130 147 147 142 139 142 143 150 151 150 140 139 130 121 85 351 340 340 339 335 333 333 330 328 324
161 158 190 103 160 256 143 59 170 215 149 295 265 206 189 161 110 126 137 137 138 137 137 139 136 138 147 150 151 142 141 145 147 305 321 329 329 331 328 326 326 328 329 326
178 192 184 178 212 210 205 106 75 69 39 260 262 190 133 127 133 133 132 133 137 137 133 136 136 137 142 149 153 146 147 155 213 282 310 318 321 325 327 328 328 328 326 322
273 357 171 109 270 181 271 344 33 70 266 241 215 147 146 137 143 137 137 138 135 137 136 140 139 140 142 145 144 143 161 189 242 283 310 321 324 326 328 326 330 326 324 319
200 107 169 288 299 314 269 228 360 81 82 113 110 130 136 136 144 144 142 139 139 137 142 150 150 147 147 149 149 159 176 207 272 309 322 329 329 328 332 331 329 323 319 313
184 176 174 235 141 84 272 162 159 159 154 169 151 120 108 144 144 138 139 143 142 141 147 147 151 152 153 158 156 169 193 252 296 313 320 327 333 338 336 332 328 327 317 308